Regional Weather Roundup
Issued by NWS Green Bay, WI

Home | Current Version | Previous Version | Text Only | Print | Product List | Glossary On
Versions: 1 2 3 4 5 6 7 8 9 10 11 12 13 14 15 16 17 18 19 20 21 22 23 24 25 26 27 28 29 30 31 32 33 34 35 36 37 38 39 40 41 42 43 44 45 46 47 48 49 50
000
ASUS43 KGRB 280959
RWRGRB

NORTH-CENTRAL AND NORTHEAST WISCONSIN REGIONAL WEATHER ROUNDUP
NATIONAL WEATHER SERVICE GREEN BAY WI
500 AM CDT SAT MAR 28 2015

WIZ005-009-010>012-018-019-281100-
NORTH CENTRAL WISCONSIN

CITY           SKY/WX    TMP DP  RH WIND       PRES   REMARKS
IRONWOOD       CLEAR      5   5 100 CALM      30.16S
MANITOWISH WTR NOT AVBL
ARBOR VITAE    NOT AVBL
EAGLE RIVER    NOT AVBL
LAND O LAKES   NOT AVBL
RHINELANDER    CLEAR      8   3  80 E3        30.17R
PHILLIPS       NOT AVBL
ANTIGO         NOT AVBL
TOMAHAWK       NOT AVBL
MERRILL        NOT AVBL
$$

WIZ013-073-281100-
NORTHEAST WISCONSIN

CITY           SKY/WX    TMP DP  RH WIND       PRES   REMARKS
IRON MOUNTAIN  CLEAR      3  -3  76 CALM      30.20S
MARINETTE      CLEAR     10   3  72 CALM      30.25S
$$

WIZ017-030-035>037-045-281100-
CENTRAL WISCONSIN

CITY           SKY/WX    TMP DP  RH WIND       PRES   REMARKS
MEDFORD        NOT AVBL
WAUSAU         CLEAR     15   8  73 E3        30.19S
MOSINEE        NOT AVBL
MARSHFIELD     CLEAR     18  10  71 CALM      30.20R
WISC RAPIDS    CLEAR     10   6  84 CALM      30.23R
STEVENS POINT  NOT AVBL
WAUPACA        NOT AVBL
SHAWANO        NOT AVBL
CLINTONVILLE   NOT AVBL
$$

WIZ038-039-048-051-281100-
FOX VALLEY

CITY           SKY/WX    TMP DP  RH WIND       PRES   REMARKS
NWS GREEN BAY  CLEAR     19  12  74 CALM      30.26R
APPLETON       NOT AVBL
OSHKOSH        CLEAR     16  10  77 CALM      30.24S
FOND DU LAC    CLEAR     13   9  84 CALM      30.25R
$$

WIZ022-050-052-281100-
EAST CENTRAL WISCONSIN

CITY           SKY/WX    TMP DP  RH WIND       PRES   REMARKS
STURGEON BAY   CLEAR     16   0  48 CALM      30.27S
MANITOWOC      NOT AVBL
SHEBOYGAN      CLEAR     17  11  77 CALM      30.25R
$$

LMZ563-521-522-541>543-281100-
LAKESHORE

STATION/POSITION TIME  TEMP    WIND        PRES    VSBY  WAVE
                       AIR SEA DIR/SP/G                  HT/PER
                 (UTC) (F)     (DEG/KT/KT) (MB)    (MI)  (FT/S)
SHEBOYGAN LKSHOR 0900   21     300/  6/  7 1025.4R
KEWAUNEE LKSHORE 0900   17     280/  3/  5 1023.7R
NORTHPORT PIER   0900   15     300/  4/  6 1024.7S
SISTER BAY LKSHO 0900   12        CALM       N/A
CHAMBERS ISLAND  0900   10      CALM  /  1 1024.7S
MENOMINEE LKSHOR 0900   14     300/  3     1025.3R
$$



USA.gov is the U.S. government's official web portal to all federal, state and local government web resources and services.